This demonstration page uses our WeatherBlox Daily Observations layout. Learn more.

Left ArrowRight Arrow

34.74481, -87.66753

Hourly Observations for October 11, 2020

Temp ( °F °C ) Dew Point ( °F °C ) Humidity (%) Winds ( mph kmh ) Pressure ( in mb ) Visibility ( mi km ) Precip ( " mm )
12:04 am 00:04 Cloudy 70 21.1 67 19.4 90 90 E 6 9 29.69 1005 10 16 0.00 0.00
12:53 am 00:53 Cloudy with Light Rain 70 21.1 67 19.4 90 90 E 3 6 29.68 1005 3 4 0.03 0.76
1:26 am 01:26 Cloudy with Light Rain 70 21.1 67 19.4 90 90 E 5 7 29.69 1005 3 5 0.04 1.02
1:53 am 01:53 Cloudy with Light Rain 70 21.1 67 19.4 90 90 E 5 7 29.68 1005 4 6 0.07 1.78
2:53 am 02:53 Cloudy 70 21.1 67 19.4 90 90 ENE 3 6 29.67 1005 10 16 0.00 0.00
3:18 am 03:18 Cloudy 70 21.1 67 19.4 90 90 Calm 29.67 1005 10 16 0.00 0.00
3:32 am 03:32 Cloudy 70 21.1 67 19.4 90 90 Calm 29.68 1005 10 16 0.00 0.00
3:42 am 03:42 Cloudy 70 21.1 67 19.4 90 90 E 3 6 29.68 1005 10 16 0.00 0.00
3:53 am 03:53 Cloudy 70 21.1 67 19.4 90 90 E 3 6 29.67 1005 10 16 0.00 0.00
4:53 am 04:53 Cloudy with Mist and Fog 70 21.1 67 19.4 90 90 NNE 3 6 29.67 1005 3 4 0.00 0.00
5:05 am 05:05 Cloudy with Mist and Fog 70 21.1 67 19.4 90 90 Calm 29.68 1005 3 5 0.00 0.00
5:16 am 05:16 Cloudy with Mist and Fog 70 21.1 67 19.4 90 90 Calm 29.69 1005 4 6 0.00 0.00
5:38 am 05:38 Cloudy with Mist and Fog 70 21.1 67 19.4 90 90 Calm 29.69 1005 3 4 0.00 0.00
5:53 am 05:53 Cloudy with Mist and Fog 70 21.1 67 19.4 90 90 Calm 29.69 1005 3 5 0.00 0.00
6:02 am 06:02 Cloudy with Mist and Fog 70 21.1 67 19.4 90 90 Calm 29.70 1006 3 5 0.01 0.25
6:09 am 06:09 Cloudy with Mist and Fog 70 21.1 67 19.4 90 90 Calm 29.70 1006 3 4 0.01 0.25
6:18 am 06:18 Cloudy with Mist and Fog 70 21.1 68 20 93 93 Calm 29.70 1006 3 4 0.01 0.25
6:26 am 06:26 Cloudy with Light Rain 70 21.1 67 19.4 90 90 Calm 29.70 1006 3 4 0.02 0.51
6:37 am 06:37 Cloudy with Light Rain 70 21.1 68 20 93 93 Calm 29.70 1006 4 6 0.02 0.51
6:53 am 06:53 Cloudy with Mist and Fog 70 21.1 68 20 93 93 Calm 29.70 1006 6 10 0.02 0.51
7:19 am 07:19 Cloudy 70 21.1 68 20 93 93 Calm 29.72 1006 8 13 0.00 0.00
7:31 am 07:31 Cloudy 71 21.7 67 19.4 87 87 Calm 29.71 1006 10 16 0.00 0.00
7:53 am 07:53 Cloudy 71 21.7 68 20 90 90 NW 3 6 29.72 1006 10 16 0.00 0.00
8:06 am 08:06 Cloudy 71 21.7 68 20 90 90 NW 3 6 29.72 1007 10 16 0.00 0.00
8:42 am 08:42 Cloudy 72 22.2 69 20.6 91 91 NW 5 7 29.73 1007 10 16 0.00 0.00
8:53 am 08:53 Mostly Cloudy 72 22.2 68 20 87 87 NW 3 6 29.73 1007 10 16 0.00 0.00
9:36 am 09:36 Mostly Cloudy 73 22.8 68 20 84 84 NW 3 6 29.75 1008 10 16 0.00 0.00
9:53 am 09:53 Cloudy 74 23.3 68 20 82 82 N 3 6 29.75 1008 10 16 0.00 0.00
10:06 am 10:06 Cloudy 74 23.3 68 20 82 82 NW 3 6 29.76 1008 10 16 0.00 0.00
10:28 am 10:28 Cloudy with Light Rain 73 22.8 68 20 84 84 NW 3 6 29.76 1008 10 16 0.00 0.00
10:39 am 10:39 Cloudy 75 23.9 69 20.6 82 82 WNW 5 7 29.76 1008 10 16 0.00 0.00
10:53 am 10:53 Mostly Cloudy 74 23.3 69 20.6 85 85 W 6 9 29.76 1008 10 16 0.00 0.00
11:18 am 11:18 Cloudy 74 23.3 69 20.6 85 85 NW 6 9 29.76 1008 10 16 0.00 0.00
11:31 am 11:31 Cloudy 75 23.9 69 20.6 82 82 NW 6 9 29.76 1008 10 16 0.00 0.00
11:53 am 11:53 Mostly Cloudy 75 23.9 69 20.6 82 82 WNW 6 9 29.76 1008 10 16 0.00 0.00
12:19 pm 12:19 Mostly Cloudy 77 25 69 20.6 77 77 WSW 9 15 29.76 1008 10 16 0.00 0.00
12:32 pm 12:32 Cloudy 75 23.9 68 20 79 79 WNW 9 15 29.76 1008 10 16 0.00 0.00
12:53 pm 12:53 Cloudy 74 23.3 69 20.6 85 85 WNW 9 15 29.76 1008 10 16 0.00 0.00
1:11 pm 13:11 Cloudy 75 23.9 69 20.6 82 82 W 10 17 29.76 1008 10 16 0.00 0.00
1:18 pm 13:18 Cloudy with Light Rain 74 23.3 68 20 82 82 WNW 7 11 29.76 1008 5 8 0.01 0.25
1:28 pm 13:28 Cloudy with Light Rain 74 23.3 69 20.6 85 85 NW 7 11 29.76 1008 8 13 0.01 0.25
1:37 pm 13:37 Cloudy 74 23.3 69 20.6 85 85 WNW 7 11 29.76 1008 10 16 0.01 0.25
1:48 pm 13:48 Cloudy with Light Rain 73 23 70 21 89 89 WNW 9 15 29.76 1008 6 10 0.01 0.25
1:53 pm 13:53 Cloudy 73 22.8 69 20.6 87 87 WNW 10 17 29.76 1008 10 16 0.01 0.25
2:31 pm 14:31 Cloudy 76 24.4 69 20.6 79 79 WNW 9 15 29.76 1008 10 16 0.00 0.00
2:46 pm 14:46 Cloudy 77 25 69 20.6 77 77 WNW 9 15 29.76 1008 10 16 0.00 0.00
2:53 pm 14:53 Cloudy 76 24.4 69 20.6 79 79 WNW 6 9 29.76 1008 10 16 0.00 0.00
3:19 pm 15:19 Cloudy 77 25 69 20.6 77 77 NW 5 7 29.76 1008 10 16 0.00 0.00
3:53 pm 15:53 Cloudy 75 23.9 68 20 79 79 N 9 15 29.77 1008 10 16 0.00 0.00
4:51 pm 16:51 Cloudy 75 24 68 20 78 78 N 5 7 29.78 1008 10 16 0.00 0.00
4:53 pm 16:53 Cloudy 75 23.9 69 20.6 82 82 NNW 3 6 29.78 1008 10 16 0.00 0.00
5:03 pm 17:03 Cloudy 75 23.9 69 20.6 82 82 VRB 3 6 29.78 1008 10 16 0.00 0.00
5:13 pm 17:13 Cloudy 75 23.9 69 20.6 82 82 NW 3 6 29.78 1008 10 16 0.00 0.00
5:33 pm 17:33 Cloudy with Light Rain 73 22.8 69 20.6 87 87 NNW 6 9 29.79 1009 4 6 0.01 0.25
5:53 pm 17:53 Cloudy 73 22.8 69 20.6 87 87 NW 5 7 29.79 1009 10 16 0.01 0.25
6:25 pm 18:25 Cloudy 73 22.8 69 20.6 87 87 WNW 5 7 29.80 1009 10 16 0.00 0.00
6:53 pm 18:53 Cloudy 73 22.8 69 20.6 87 87 WNW 5 7 29.81 1010 10 16 0.00 0.00
7:21 pm 19:21 Cloudy 73 22.8 69 20.6 87 87 WNW 6 9 29.82 1010 10 16 0.00 0.00
7:41 pm 19:41 Cloudy with Light Rain 73 22.8 69 20.6 87 87 Calm 29.82 1010 10 16 0.01 0.25
7:53 pm 19:53 Cloudy 73 22.8 69 20.6 87 87 NW 3 6 29.83 1010 10 16 0.01 0.25
8:25 pm 20:25 Cloudy 72 22.2 69 20.6 91 91 NW 3 6 29.83 1010 10 16 0.00 0.00
8:53 pm 20:53 Cloudy 72 22.2 69 20.6 91 91 NW 3 6 29.84 1010 10 16 0.00 0.00
9:53 pm 21:53 Cloudy 72 22.2 68 20 87 87 WNW 3 6 29.83 1010 10 16 0.00 0.00
10:53 pm 22:53 Cloudy 72 22.2 69 20.6 91 91 W 3 6 29.85 1011 10 16 0.00 0.00
11:53 pm 23:53 Cloudy 72 22.2 69 20.6 91 91 Calm 29.85 1011 10 16 0.00 0.00

Powered by Vaisala Xweather